This is the latest recevied weather packets stored in our database for station/object KB4MOX. If no packets are shown the sender has not sent any weather packets the latest 10 day(s).
| Time | Temp. | Humidity | Pressure | Rain* | Wind** | Luminosity | Snow |
|---|---|---|---|---|---|---|---|
| 1778256630 | 20.56° C | 54% | 1017.8 hPa | 0 mm | - | 417 W/m² | - |
| 1778256329 | 20.56° C | 53% | 1017.9 hPa | 0 mm | - | 371 W/m² | - |
| 1778256025 | 20.56° C | 55% | 1017.6 hPa | 0 mm | - | 360 W/m² | - |
| 1778255722 | 20.56° C | 55% | 1017.7 hPa | 0 mm | - | 385 W/m² | - |
| 1778255419 | 20.56° C | 56% | 1017.6 hPa | 0 mm | - | 373 W/m² | - |
| 1778255117 | 20.56° C | 56% | 1017.7 hPa | 0 mm | - | 376 W/m² | - |
| 1778254813 | 20° C | 61% | 1017.4 hPa | 0 mm | - | 389 W/m² | - |
| 1778254510 | 20° C | 57% | 1017.4 hPa | 0 mm | - | 340 W/m² | - |
| 1778254206 | 20° C | 57% | 1017.6 hPa | 0 mm | - | 305 W/m² | - |
| 1778253903 | 20.56° C | 59% | 1017.7 hPa | 0 mm | - | 280 W/m² | - |
| 1778253599 | 20.56° C | 61% | 1017.5 hPa | 0 mm | - | 295 W/m² | - |
| 1778253296 | 20° C | 62% | 1017.6 hPa | 0 mm | - | 273 W/m² | - |
| 1778252992 | 20° C | 57% | 1017.7 hPa | 0 mm | - | 277 W/m² | - |
| 1778252689 | 19.44° C | 63% | 1017.6 hPa | 0 mm | - | 360 W/m² | - |
| 1778252385 | 20° C | 59% | 1017.8 hPa | 0 mm | - | 266 W/m² | - |
| 1778252082 | 20° C | 61% | 1017.9 hPa | 0 mm | - | 240 W/m² | - |
| 1778251778 | 20° C | 60% | 1018.1 hPa | 0 mm | - | 279 W/m² | - |
| 1778251476 | 20° C | 61% | 1018.1 hPa | 0 mm | - | 157 W/m² | - |
| 1778251174 | 19.44° C | 61% | 1017.9 hPa | 0 mm | - | 170 W/m² | - |
| 1778250871 | 18.89° C | 64% | 1018.1 hPa | 0 mm | - | 124 W/m² | - |
| 1778250567 | 18.89° C | 65% | 1018.2 hPa | 0 mm | - | 96 W/m² | - |
| 1778250265 | 18.89° C | 65% | 1018.2 hPa | 0 mm | - | 116 W/m² | - |
| 1778249961 | 18.89° C | 69% | 1018.3 hPa | 0 mm | - | 122 W/m² | - |
| 1778249658 | 18.89° C | 70% | 1018.2 hPa | 0 mm | - | 107 W/m² | - |
| 1778249355 | 18.33° C | 69% | 1018.1 hPa | 0 mm | - | 112 W/m² | - |
* Rain latest hour (hover to see other rain measurements)
** Current wind speed in m/s (hover to see current wind gust speed)